Tracking 18984 objects as of 24-Feb-2018
HD Live streaming from Space Station
objects crossing your sky now

NAHUEL 1A

Track NAHUEL 1A now!
NAHUEL 1A is classified as:


NORAD ID: 24714
Int'l Code: 1997-002B
Perigee: 36,025.4 km
Apogee: 36,062.0 km
Inclination: 8.1 °
Period: 1,448.9 minutes
Semi major axis: 42414 km
RCS: 18.5843 m2 (large)
Launch date: January 30, 1997
Source: Argentina (ARGN)
Launch site: FRENCH GUIANA (FRGUI)

Coverage of Latin America and U.S., 18 Ku band transponders.
aabbcc
Your satellite tracking list
Your tracking list is empty




NASA's NSSDC Master Catalog

Two Line Element Set (TLE):
1 24714U 97002B   18054.11072341 +.00000003 +00000-0 +00000-0 0  9996
2 24714 008.1133 047.7963 0004318 192.5363 338.6424 00.99386721076915
Source of the keplerian elements: AFSPC